[[{"header":{"parameterUnit":"m.s-1","parameterCategory":1,"la1":30.2991,"la2":30.254,"lo1":-89.0895,"lo2":-89.0444,"dy":0.0017,"dx":0.0017,"nx":28,"ny":28,"refTime":"2024-04-16T21:00:00:Z","depth":0,"parameterNumber":2,"parameterNumberName":"U-component_of_WINDS"},"data":[0,0,0,0,0,0,0,0,0,0,0,0,0,0,0,0,0,0,0,0,0,0,0,0,0,0,0,0,0,0,0,0,0,0,0,0,0,0,0,0,0,0,0,0,0,0,0,0,0,0,0,0,0,0,0,0,0,0,-1.2844,-1.2845,0,-1.2882,-1.2883,-1.2883,-1.2888,-1.2888,-1.2888,-1.2887,-1.2927,-1.2929,-1.293,0,0,0,0,0,0,0,0,0,0,0,0,0,-1.2778,-1.2779,-1.2844,-1.2845,-1.2845,-1.2882,-1.2883,-1.2883,-1.2888,-1.2888,-1.2888,-1.2887,-1.2927,-1.2929,-1.293,0,0,0,0,0,0,0,0,0,0,0,0,0,-1.2811,-1.278,-1.2844,-1.2852,-1.2853,-1.2882,-1.2883,-1.2883,-1.2888,-1.2888,-1.2887,-1.2887,-1.2926,-1.2928,-1.293,-1.2954,0,0,-1.2937,-1.2938,0,0,0,0,0,0,0,0,-1.2809,-1.2813,-1.2851,-1.2852,-1.2853,-1.288,-1.2874,-1.2907,-1.2889,-1.2875,-1.2887,-1.2887,-1.2912,-1.2915,-1.2924,-1.2956,-1.2958,-1.2937,-1.2938,-1.2939,-1.294,0,0,0,0,0,0,0,-1.2806,-1.2811,-1.2859,-1.2851,-1.2853,-1.2855,-1.2859,-1.288,-1.2896,-1.2876,-1.2877,-1.2881,-1.2913,-1.2922,-1.2925,-1.2958,-1.2937,-1.2939,-1.294,-1.2941,-1.3012,-1.3012,0,0,0,0,0,0,-1.2803,-1.2809,-1.2858,-1.2861,-1.2829,-1.2856,-1.2861,-1.2872,-1.2896,-1.2899,-1.2882,-1.2881,-1.2918,-1.2922,-1.2926,-1.2955,-1.2939,-1.2941,-1.2942,-1.3011,-1.3012,-1.3013,0,0,0,0,0,0,-1.2801,-1.2807,-1.2857,-1.2835,-1.2842,-1.2858,-1.287,-1.2873,-1.2882,-1.29,-1.2903,-1.2888,-1.2918,-1.2923,-1.2947,-1.2956,-1.2942,-1.2944,-1.301,-1.3011,-1.3012,-1.3013,0,0,0,0,0,0,-1.2799,-1.2806,-1.2815,-1.2835,-1.2843,-1.2876,-1.2871,-1.2874,-1.2885,-1.2885,-1.2906,-1.2909,-1.2918,-1.2944,-1.2949,-1.2959,-1.2946,-1.301,-1.3011,-1.3012,-1.3012,-1.3014,-1.3015,0,0,0,0,0,-1.2797,-1.2814,-1.2815,-1.2821,-1.2854,-1.2877,-1.2881,-1.289,-1.2886,-1.2895,-1.2907,-1.2909,-1.2955,-1.2946,-1.2952,-1.2963,-1.3009,-1.301,-1.3012,-1.3012,-1.3014,-1.3015,0,0,0,0,0,0,-1.2795,-1.2817,-1.2819,-1.2843,-1.2858,-1.2878,-1.289,-1.2892,-1.2909,-1.2909,-1.292,-1.2924,-1.2948,-1.2958,-1.2948,-1.2987,-1.2982,-1.2984,-1.2979,-1.2981,-1.2983,-1.298,-1.2947,0,0,0,0,0,-1.2798,-1.2814,-1.2832,-1.2852,-1.286,-1.2873,-1.2884,-1.2889,-1.2906,-1.2912,-1.2925,-1.2941,-1.2959,-1.2971,-1.2989,-1.3014,-1.3019,-1.3024,-1.3026,-1.3027,-1.3029,-1.3043,-1.3046,-1.3017,-1.3017,-1.3017,0,0,-1.2803,-1.2817,-1.2827,-1.2852,-1.2864,-1.2881,-1.2879,-1.2897,-1.291,-1.2915,-1.2938,-1.2948,-1.2967,-1.2992,-1.3003,-1.3001,-1.3038,-1.3029,-1.303,-1.3031,-1.3045,-1.3047,-1.305,-1.3018,-1.3018,-1.3018,0,0,-1.2821,-1.2833,-1.2851,-1.2863,-1.2882,-1.2891,-1.2895,-1.2914,-1.2921,-1.2944,-1.2949,-1.2965,-1.2995,-1.3008,-1.3019,-1.3042,-1.3044,-1.3048,-1.3055,-1.3069,-1.3071,-1.3073,-1.3081,-1.3084,-1.305,-1.305,-1.305,0,-1.2825,-1.285,-1.286,-1.2877,-1.2889,-1.2894,-1.2912,-1.2924,-1.2947,-1.2955,-1.2952,-1.2991,-1.3004,-1.3031,-1.3037,-1.3045,-1.3051,-1.3045,-1.307,-1.3072,-1.3074,-1.3082,-1.3085,-1.305,-1.305,-1.305,-1.305,0,-1.2855,-1.2872,-1.2884,-1.2906,-1.2919,-1.2937,-1.2949,-1.2961,-1.2965,-1.2975,-1.2998,-1.3014,-1.3035,-1.3042,-1.3047,-1.307,-1.3068,-1.3068,-1.3062,-1.3077,-1.3084,-1.3087,-1.305,-1.305,-1.305,-1.305,0,0,-1.2872,-1.2899,-1.2903,-1.2913,-1.2934,-1.2948,-1.2966,-1.2986,-1.2996,-1.3012,-1.3028,-1.3054,-1.3053,-1.3065,-1.3072,-1.3084,-1.31,-1.3081,-1.3082,-1.3084,-1.3126,-1.3126,-1.3129,-1.3102,-1.3103,-1.3103,-1.3125,0,-1.2893,-1.2924,-1.2933,-1.296,-1.2977,-1.2982,-1.2998,-1.3013,-1.3022,-1.3038,-1.3049,-1.3066,-1.3065,-1.3072,-1.3084,-1.3096,-1.3109,-1.3094,-1.3117,-1.3117,-1.3111,-1.3133,-1.3133,-1.3152,-1.3127,-1.3128,-1.3128,0,-1.292,-1.2936,-1.2965,-1.2983,-1.299,-1.3004,-1.3023,-1.3038,-1.3055,-1.3061,-1.3074,-1.308,-1.3099,-1.3093,-1.3121,-1.311,-1.312,-1.3128,-1.3129,-1.3131,-1.3123,-1.3135,-1.3159,-1.3162,-1.3133,-1.3133,-1.3132,0,-1.293,-1.2958,-1.2979,-1.2988,-1.301,-1.3019,-1.3029,-1.3046,-1.3057,-1.3074,-1.3081,-1.31,-1.311,-1.3125,-1.3135,-1.313,-1.3162,-1.3157,-1.3167,-1.3167,-1.3173,-1.3172,-1.3198,-1.318,-1.318,-1.318,-1.318,0,-1.2951,-1.2968,-1.2984,-1.2996,-1.3016,-1.3026,-1.3045,-1.3055,-1.307,-1.3085,-1.3091,-1.3105,-1.3119,-1.3135,-1.3143,-1.3164,-1.3169,-1.3174,-1.3176,-1.3173,-1.3173,-1.318,-1.3178,-1.3181,-1.3181,-1.3181,-1.3181,0,-1.2964,-1.2976,-1.2998,-1.3017,-1.3023,-1.3036,-1.3052,-1.3065,-1.3075,-1.3094,-1.3099,-1.3114,-1.3133,-1.3145,-1.317,-1.3176,-1.3199,-1.32,-1.3193,-1.3193,-1.3203,-1.3202,-1.3234,-1.3238,-1.3218,-1.3218,-1.3218,0,-1.2977,-1.299,-1.301,-1.302,-1.303,-1.3047,-1.3058,-1.3069,-1.308,-1.3101,-1.3111,-1.313,-1.3146,-1.3177,-1.319,-1.3209,-1.3211,-1.3221,-1.3214,-1.321,-1.321,-1.3209,-1.321,-1.3222,-1.3222,-1.3222,-1.3222,0,-1.2998,-1.3003,-1.3018,-1.3036,-1.3049,-1.3064,-1.3079,-1.3087,-1.31,-1.3113,-1.3132,-1.3144,-1.3169,-1.3188,-1.3208,-1.3219,-1.3223,-1.3224,-1.3228,-1.3225,-1.3219,-1.3222,-1.3195,-1.3223,-1.3223,-1.3223,-1.3223,-1.3223,-1.3011,-1.3023,-1.3039,-1.3056,-1.3068,-1.3082,-1.3094,-1.3105,-1.3121,-1.3142,-1.3147,-1.3167,-1.3184,-1.3211,-1.3222,-1.3238,-1.3237,-1.3242,-1.3243,-1.3244,-1.3244,-1.3217,-1.3242,-1.3242,-1.3242,-1.3242,-1.3242,0,-1.3032,-1.3042,-1.3058,-1.3078,-1.3092,-1.3094,-1.311,-1.3121,-1.3139,-1.3154,-1.3169,-1.3191,-1.321,-1.3225,-1.3244,-1.3254,-1.3256,-1.3258,-1.3258,-1.326,-1.3244,-1.3239,-1.3256,-1.3256,-1.3256,-1.3256,-1.3256,-1.3256,-1.3044,-1.3064,-1.3071,-1.3097,-1.3107,-1.3126,-1.3136,-1.3148,-1.316,-1.3184,-1.3199,-1.3209,-1.3224,-1.3244,-1.3261,-1.3265,-1.3272,-1.3274,-1.3278,-1.3263,-1.3261,-1.326,-1.3255,-1.3275,-1.3275,-1.3292,-1.3292,-1.3292]},{"header":{"parameterUnit":"m.s-1","parameterCategory":1,"la1":30.2991,"la2":30.254,"lo1":-89.0895,"lo2":-89.0444,"dy":0.0017,"dx":0.0017,"nx":28,"ny":28,"refTime":"2024-04-16T21:00:00:Z","depth":0,"parameterNumber":3,"parameterNumberName":"V-component_of_WINDS"},"data":[0,0,0,0,0,0,0,0,0,0,0,0,0,0,0,0,0,0,0,0,0,0,0,0,0,0,0,0,0,0,0,0,0,0,0,0,0,0,0,0,0,0,0,0,0,0,0,0,0,0,0,0,0,0,0,0,0,0,2.8205,2.8205,0,2.8211,2.8211,2.8211,2.8168,2.8167,2.8166,2.8165,2.817,2.8171,2.8173,0,0,0,0,0,0,0,0,0,0,0,0,0,2.8159,2.816,2.8205,2.8205,2.8205,2.8211,2.8211,2.8211,2.8168,2.8167,2.8165,2.8164,2.817,2.8171,2.8173,0,0,0,0,0,0,0,0,0,0,0,0,0,2.8173,2.816,2.8205,2.8185,2.8183,2.8211,2.8211,2.8211,2.8169,2.8167,2.8165,2.8163,2.8169,2.8171,2.8173,2.822,0,0,2.8179,2.818,0,0,0,0,0,0,0,0,2.8172,2.8175,2.8188,2.8186,2.8184,2.8187,2.8196,2.8214,2.8169,2.8174,2.8165,2.8163,2.8177,2.8178,2.8183,2.8221,2.8221,2.8179,2.818,2.8181,2.8181,0,0,0,0,0,0,0,2.8171,2.8174,2.8207,2.8188,2.8186,2.8176,2.8176,2.8199,2.8186,2.8174,2.817,2.8172,2.8176,2.8182,2.8183,2.8221,2.8179,2.8181,2.8182,2.8182,2.8298,2.83,0,0,0,0,0,0,2.8173,2.8174,2.8207,2.8207,2.8174,2.8178,2.8178,2.8188,2.8185,2.8183,2.8173,2.817,2.8179,2.8181,2.8183,2.8239,2.8181,2.8183,2.8184,2.8296,2.8299,2.8301,0,0,0,0,0,0,2.8172,2.8176,2.8207,2.819,2.8193,2.8181,2.8192,2.8189,2.8194,2.8185,2.8182,2.8181,2.8178,2.818,2.8212,2.8239,2.8183,2.8185,2.8294,2.8297,2.83,2.8351,0,0,0,0,0,0,2.8171,2.8176,2.8194,2.8191,2.8194,2.8235,2.8194,2.819,2.8198,2.8193,2.8192,2.819,2.8177,2.8209,2.8214,2.824,2.8187,2.8292,2.8296,2.8299,2.8347,2.8356,2.8363,0,0,0,0,0,2.817,2.8208,2.8195,2.82,2.8216,2.8237,2.8239,2.8223,2.82,2.8218,2.8212,2.819,2.8235,2.8213,2.8217,2.8245,2.829,2.8294,2.8299,2.8344,2.8354,2.8363,0,0,0,0,0,0,2.8215,2.8207,2.8193,2.8231,2.8235,2.823,2.8252,2.8234,2.8244,2.824,2.8219,2.8219,2.8254,2.8252,2.8228,2.8291,2.8259,2.8264,2.8291,2.8301,2.8309,2.8309,2.8188,0,0,0,0,0,2.823,2.8248,2.824,2.8274,2.8277,2.8264,2.8273,2.826,2.8263,2.8265,2.8261,2.8265,2.828,2.829,2.8303,2.8347,2.8346,2.8368,2.8376,2.8382,2.8388,2.8412,2.8422,2.8315,2.8315,2.8315,0,0,2.826,2.8258,2.827,2.8284,2.8285,2.8304,2.8266,2.8288,2.8302,2.8268,2.8297,2.8295,2.8298,2.8336,2.8352,2.8335,2.8417,2.8388,2.8393,2.8395,2.8417,2.8428,2.8437,2.8318,2.8318,2.8317,0,0,2.8325,2.8325,2.8355,2.8357,2.836,2.8351,2.8358,2.8355,2.8353,2.8382,2.8357,2.8374,2.84,2.8403,2.8408,2.8476,2.8456,2.8481,2.8522,2.8546,2.8554,2.8562,2.8587,2.8596,2.8486,2.8486,2.8486,0,2.8363,2.8391,2.8372,2.8396,2.8403,2.8373,2.8403,2.8406,2.8413,2.8419,2.84,2.8433,2.8432,2.8471,2.8488,2.8493,2.8501,2.8481,2.8554,2.8562,2.8568,2.8592,2.8601,2.8489,2.8488,2.8488,2.8488,0,2.8437,2.8457,2.848,2.8488,2.8497,2.8524,2.851,2.8522,2.8508,2.8502,2.8533,2.8531,2.8544,2.8552,2.8539,2.859,2.858,2.8558,2.8525,2.8582,2.8604,2.8613,2.8493,2.8492,2.8491,2.849,0,0,2.8532,2.8529,2.8538,2.8542,2.8543,2.8558,2.8583,2.8596,2.8607,2.8613,2.8635,2.8658,2.8638,2.8644,2.8631,2.8651,2.8706,2.8627,2.8627,2.8643,2.8763,2.8781,2.8792,2.8693,2.8695,2.8696,2.8764,0,2.8596,2.864,2.8624,2.8669,2.8688,2.866,2.8682,2.8686,2.868,2.8695,2.8689,2.8706,2.8678,2.8682,2.8701,2.8696,2.873,2.869,2.8714,2.8715,2.8715,2.8803,2.8821,2.8885,2.8772,2.8773,2.8774,0,2.8677,2.8687,2.8734,2.8733,2.874,2.876,2.8771,2.8786,2.8789,2.8784,2.8791,2.8774,2.8799,2.8766,2.8801,2.8774,2.8783,2.8782,2.8784,2.8786,2.8749,2.8809,2.8905,2.8915,2.8788,2.8787,2.8786,0,2.8743,2.8768,2.8799,2.8803,2.8802,2.8817,2.8817,2.8819,2.8828,2.8838,2.8843,2.8856,2.8863,2.8873,2.886,2.8836,2.8898,2.8862,2.8895,2.8895,2.891,2.8909,2.901,2.8913,2.8913,2.8913,2.8913,0,2.8818,2.8848,2.8829,2.8849,2.8882,2.8863,2.8897,2.8894,2.8896,2.8915,2.8891,2.8909,2.889,2.8906,2.8896,2.8928,2.8931,2.8928,2.8925,2.8931,2.8931,2.8937,2.8933,2.8916,2.8915,2.8915,2.8914,0,2.8898,2.8886,2.8919,2.8915,2.8915,2.894,2.8937,2.8955,2.8948,2.8972,2.8976,2.8966,2.8984,2.8971,2.899,2.8983,2.9025,2.9015,2.9024,2.9022,2.9056,2.9053,2.9164,2.9178,2.9072,2.9073,2.9074,0,2.8947,2.8969,2.8968,2.8979,2.8981,2.8999,2.9008,2.8991,2.9001,2.9007,2.9025,2.9041,2.9054,2.9085,2.9079,2.9093,2.9084,2.9122,2.9086,2.9092,2.9086,2.9086,2.9088,2.9129,2.9131,2.9132,2.9133,0,2.9035,2.9029,2.9043,2.9055,2.9067,2.9076,2.9083,2.9093,2.9076,2.9089,2.9108,2.9117,2.9136,2.9153,2.9165,2.9166,2.9147,2.9144,2.9152,2.9159,2.9164,2.9163,2.9045,2.9142,2.9141,2.914,2.9139,2.9139,2.9102,2.9121,2.9124,2.9141,2.9144,2.9151,2.9169,2.9164,2.9179,2.9193,2.9182,2.9205,2.9208,2.9222,2.9225,2.9243,2.9227,2.9239,2.9243,2.9246,2.9252,2.916,2.9245,2.9244,2.9244,2.9244,2.9244,0,2.9191,2.9191,2.9207,2.9217,2.9231,2.9211,2.9218,2.9231,2.9251,2.9256,2.9268,2.929,2.9307,2.9302,2.9317,2.9332,2.9324,2.9337,2.9336,2.9337,2.9264,2.9256,2.9343,2.9343,2.9343,2.9343,2.9343,2.9343,2.9239,2.9271,2.9264,2.9298,2.9298,2.932,2.9326,2.9333,2.9336,2.9362,2.9376,2.9372,2.9373,2.9388,2.9403,2.9401,2.9408,2.9425,2.942,2.9352,2.9342,2.9333,2.9325,2.9426,2.9426,2.9492,2.9493,2.9493]}]]